Pagrindinis puslapis
METAR-TAF:

METAR-TAF

Oro uostai :

Winston Field

Snyder, Teksasas, Jungtinės Amerikos Valstijos

platuma: 32-41-36N, ilguma: 100-57-01W, Aukštis: 741 m

Dabartinis oras

Ataskaita buvo paskelbta 19 minutes, ne 10:35 UTC
Vėjas 9 kt iš Pietų/Pietvakarių
Temperatūra 28°C
Drėgmė 30%
Slėgis 1013 hPa
Matomumas: 16.1 km
Giedras dangus

METAR: KSNK 151035Z AUTO 20009KT 10SM CLR 28/09 A2991 RMK AO2 T02840089

Laikas: 05:54 (10:54 UTC)


TAF: trūkstamas

Orai ataskaitas ir orų prognozės (METAR, TAF).

turimą stotys yra geltonos ir raudonos taškus žemėlapyje.

Perkelti pele per norėdami pamatyti stoties vardą.

Tada spustelėkite, norėdami matyti oro stebėjimo ir prognozės.

Norėdami pakeisti žemėlapį: spustelėkite ant žalios mygtukų su juodo kryžiaus žemyn,; žalią mygtuką su brūkšneliu, jei norite nutolinti; arba žalių rodyklių gretimoms žemėlapius.


METAR-TAF: